When you browse on this site, cookies collect data to enhance your experience and personalize the content and advertising you see.
Visit our Privacy Policy to learn more. By continuing to use the site, you agree to this use of cookies and data.
  • Em Portugal
  • Lista de países
  • Para 7 dias
  • Temperatura da água
  • Mapas de satélite
  • Mapa do tempo
  • Widgets de tempo
  • user-avatar
    Iniciar Sessão

    Previsão horária em Volnovaha

    Hoje, 18 Fevereiro, Segunda-feira

    Tempo Temperatura Precipitação Vento Pressão Humidade
    00:00 -1°C° 0 mm 7 m/s 735 mmHg 85%
    01:00 -1°C° 0 mm 7 m/s 735 mmHg 83%
    02:00 -1°C° 0 mm 6 m/s 734 mmHg 83%
    03:00 -2°C° 0 mm 7 m/s 735 mmHg 81%
    04:00 -2°C° 0 mm 7 m/s 735 mmHg 80%
    05:00 -2°C° 0 mm 7 m/s 735 mmHg 79%
    06:00 -2°C° 0 mm 7 m/s 736 mmHg 78%
    07:00 -3°C° 0 mm 7 m/s 736 mmHg 78%
    08:00 -3°C° 0 mm 7 m/s 736 mmHg 77%
    09:00 -2°C° 0 mm 7 m/s 737 mmHg 72%
    10:00 -2°C° 0 mm 7 m/s 737 mmHg 66%
    11:00 -1°C° 0 mm 6 m/s 738 mmHg 60%
    12:00 -1°C° 0 mm 6 m/s 738 mmHg 59%
    13:00 -1°C° 0 mm 6 m/s 739 mmHg 58%
    14:00 +1°C° 0 mm 6 m/s 738 mmHg 55%
    15:00 -1°C° 0 mm 6 m/s 739 mmHg 59%
    16:00 -2°C° 0 mm 6 m/s 739 mmHg 64%
    17:00 -3°C° 0 mm 6 m/s 739 mmHg 68%
    18:00 -3°C° 0 mm 6 m/s 740 mmHg 69%
    19:00 -4°C° 0 mm 6 m/s 741 mmHg 69%
    20:00 -4°C° 0 mm 6 m/s 741 mmHg 70%
    21:00 -5°C° 0 mm 6 m/s 742 mmHg 68%
    22:00 -5°C° 0 mm 6 m/s 742 mmHg 66%
    23:00 -5°C° 0 mm 5 m/s 743 mmHg 65%

    Amanhã, 19 Fevereiro, Terça-feira

    Tempo Temperatura Precipitação Vento Pressão Humidade
    00:00 -4°C° 0 mm 4 m/s 743 mmHg 65%
    01:00 -4°C° 0 mm 4 m/s 743 mmHg 66%
    02:00 -5°C° 0 mm 3 m/s 744 mmHg 67%
    03:00 -4°C° 0 mm 2 m/s 744 mmHg 67%
    04:00 -4°C° 0 mm 2 m/s 744 mmHg 68%
    05:00 -4°C° 0 mm 2 m/s 745 mmHg 68%
    06:00 -4°C° 0 mm 2 m/s 745 mmHg 67%
    07:00 -4°C° 0 mm 2 m/s 746 mmHg 65%
    08:00 -4°C° 0 mm 2 m/s 746 mmHg 63%
    09:00 -3°C° 0 mm 2 m/s 746 mmHg 58%
    10:00 0°C° 0 mm 1 m/s 746 mmHg 54%
    11:00 +1°C° 0 mm 1 m/s 747 mmHg 49%
    12:00 +1°C° 0 mm 1 m/s 746 mmHg 48%
    13:00 +2°C° 0 mm 1 m/s 746 mmHg 46%
    14:00 +1°C° 0 mm 0 m/s 746 mmHg 45%
    15:00 +1°C° 0 mm 1 m/s 746 mmHg 49%
    16:00 +1°C° 0 mm 1 m/s 746 mmHg 53%
    17:00 0°C° 0 mm 1 m/s 746 mmHg 56%
    18:00 -2°C° 0 mm 2 m/s 746 mmHg 60%
    19:00 -3°C° 0 mm 2 m/s 746 mmHg 63%
    20:00 -3°C° 0 mm 2 m/s 745 mmHg 66%
    21:00 -3°C° 0 mm 2 m/s 745 mmHg 65%
    22:00 -4°C° 0 mm 2 m/s 745 mmHg 64%
    23:00 -4°C° 0 mm 2 m/s 744 mmHg 63%

    Depois de amanhã, 20 Fevereiro, Quarta-feira

    Tempo Temperatura Precipitação Vento Pressão Humidade
    00:00 -5°C° 0 mm 3 m/s 744 mmHg 63%
    01:00 -5°C° 0 mm 3 m/s 744 mmHg 63%
    02:00 -5°C° 0 mm 3 m/s 744 mmHg 63%
    03:00 -4°C° 0 mm 2 m/s 743 mmHg 65%
    04:00 -4°C° 0 mm 2 m/s 743 mmHg 68%
    05:00 -4°C° 0 mm 2 m/s 742 mmHg 70%
    06:00 -4°C° 0 mm 3 m/s 742 mmHg 68%
    07:00 -4°C° 0 mm 3 m/s 742 mmHg 66%
    08:00 -3°C° 0 mm 4 m/s 742 mmHg 65%
    09:00 -2°C° 0 mm 4 m/s 741 mmHg 59%
    10:00 -1°C° 0 mm 4 m/s 741 mmHg 54%
    11:00 +1°C° 0 mm 5 m/s 741 mmHg 49%
    12:00 +1°C° 0 mm 5 m/s 740 mmHg 48%
    13:00 +2°C° 0 mm 5 m/s 740 mmHg 48%
    14:00 +2°C° 0 mm 5 m/s 740 mmHg 48%
    15:00 +1°C° 0 mm 4 m/s 739 mmHg 54%
    16:00 0°C° 0 mm 4 m/s 739 mmHg 60%
    17:00 -1°C° 0 mm 4 m/s 739 mmHg 66%
    18:00 -1°C° 0 mm 4 m/s 738 mmHg 69%
    19:00 -2°C° 0 mm 4 m/s 738 mmHg 71%
    20:00 -2°C° 0 mm 4 m/s 738 mmHg 74%
    21:00 -1°C° 0 mm 4 m/s 738 mmHg 75%
    22:00 -1°C° 0 mm 4 m/s 738 mmHg 77%
    23:00 -1°C° 0 mm 5 m/s 738 mmHg 78%

    21 Fevereiro, Quinta-feira

    Tempo Temperatura Precipitação Vento Pressão Humidade
    00:00 -1°C° 0 mm 4 m/s 737 mmHg 81%
    01:00 -1°C° 0 mm 4 m/s 737 mmHg 84%
    02:00 -1°C° 0 mm 4 m/s 737 mmHg 87%
    03:00 -1°C° 0.2 mm 4 m/s 737 mmHg 90%
    04:00 0°C° 0.2 mm 4 m/s 736 mmHg 93%
    05:00 0°C° 0.2 mm 4 m/s 736 mmHg 96%
    06:00 0°C° 0 mm 4 m/s 736 mmHg 94%
    07:00 0°C° 0 mm 5 m/s 736 mmHg 91%
    08:00 0°C° 0 mm 5 m/s 736 mmHg 88%
    09:00 +1°C° 0 mm 6 m/s 736 mmHg 79%
    10:00 +2°C° 0 mm 7 m/s 736 mmHg 69%
    11:00 +2°C° 0 mm 8 m/s 736 mmHg 60%
    12:00 +2°C° 0.1 mm 8 m/s 736 mmHg 61%
    13:00 +1°C° 0.1 mm 8 m/s 736 mmHg 62%
    14:00 +1°C° 0.1 mm 9 m/s 736 mmHg 63%
    15:00 0°C° 0 mm 8 m/s 736 mmHg 61%
    16:00 -1°C° 0 mm 8 m/s 736 mmHg 59%
    17:00 -1°C° 0 mm 7 m/s 737 mmHg 58%
    18:00 -2°C° 0 mm 7 m/s 737 mmHg 59%
    19:00 -2°C° 0 mm 7 m/s 737 mmHg 61%
    20:00 -3°C° 0 mm 6 m/s 737 mmHg 62%
    21:00 -3°C° 0 mm 6 m/s 737 mmHg 64%
    22:00 -4°C° 0 mm 5 m/s 737 mmHg 66%
    23:00 -4°C° 0 mm 4 m/s 737 mmHg 68%

    22 Fevereiro, Sexta-feira

    Tempo Temperatura Precipitação Vento Pressão Humidade
    00:00 -5°C° 0 mm 5 m/s 737 mmHg 66%
    01:00 -5°C° 0 mm 5 m/s 737 mmHg 65%
    02:00 -5°C° 0 mm 5 m/s 738 mmHg 63%
    03:00 -5°C° 0 mm 5 m/s 737 mmHg 64%
    04:00 -4°C° 0 mm 4 m/s 737 mmHg 65%
    05:00 -4°C° 0 mm 4 m/s 737 mmHg 65%
    06:00 -4°C° 0 mm 4 m/s 737 mmHg 64%
    07:00 -4°C° 0 mm 4 m/s 738 mmHg 62%
    08:00 -4°C° 0 mm 4 m/s 738 mmHg 60%
    09:00 -3°C° 0 mm 4 m/s 738 mmHg 57%
    10:00 -2°C° 0 mm 3 m/s 738 mmHg 54%
    11:00 -2°C° 0 mm 3 m/s 738 mmHg 50%
    12:00 -2°C° 0 mm 3 m/s 738 mmHg 53%
    13:00 -2°C° 0 mm 3 m/s 738 mmHg 55%
    14:00 -3°C° 0 mm 4 m/s 738 mmHg 57%
    15:00 -4°C° 0.1 mm 4 m/s 738 mmHg 62%
    16:00 -6°C° 0.1 mm 5 m/s 738 mmHg 67%
    17:00 -6°C° 0.1 mm 5 m/s 738 mmHg 72%
    18:00 -8°C° 0.2 mm 6 m/s 739 mmHg 71%
    19:00 -9°C° 0.2 mm 7 m/s 739 mmHg 70%
    20:00 -11°C° 0.2 mm 7 m/s 740 mmHg 69%
    21:00 -11°C° 0.1 mm 7 m/s 740 mmHg 69%
    22:00 -12°C° 0.1 mm 7 m/s 740 mmHg 68%
    23:00 -12°C° 0.1 mm 7 m/s 741 mmHg 68%

    23 Fevereiro, Sábado

    Tempo Temperatura Precipitação Vento Pressão Humidade
    00:00 -13°C° 0.1 mm 7 m/s 741 mmHg 67%
    01:00 -13°C° 0.1 mm 8 m/s 741 mmHg 67%
    02:00 -13°C° 0.1 mm 8 m/s 741 mmHg 66%
    03:00 -13°C° 0 mm 8 m/s 742 mmHg 65%
    04:00 -15°C° 0 mm 8 m/s 742 mmHg 65%
    05:00 -15°C° 0 mm 8 m/s 742 mmHg 64%
    06:00 -15°C° 0 mm 8 m/s 742 mmHg 63%
    07:00 -15°C° 0 mm 8 m/s 743 mmHg 63%
    08:00 -15°C° 0 mm 8 m/s 743 mmHg 62%
    09:00 -15°C° 0 mm 8 m/s 744 mmHg 60%
    10:00 -15°C° 0 mm 8 m/s 744 mmHg 58%
    11:00 -13°C° 0 mm 8 m/s 744 mmHg 56%
    12:00 -13°C° 0 mm 8 m/s 744 mmHg 54%
    13:00 -13°C° 0 mm 7 m/s 744 mmHg 53%
    14:00 -12°C° 0 mm 7 m/s 744 mmHg 51%
    15:00 -13°C° 0 mm 7 m/s 744 mmHg 53%
    16:00 -13°C° 0 mm 7 m/s 745 mmHg 55%
    17:00 -14°C° 0 mm 6 m/s 745 mmHg 57%
    18:00 -14°C° 0 mm 6 m/s 745 mmHg 58%
    19:00 -14°C° 0 mm 6 m/s 745 mmHg 60%
    20:00 -15°C° 0 mm 6 m/s 746 mmHg 61%
    21:00 -15°C° 0 mm 6 m/s 746 mmHg 62%
    22:00 -14°C° 0 mm 5 m/s 746 mmHg 62%
    23:00 -14°C° 0 mm 5 m/s 746 mmHg 63%
    Mostrar mais